Satellite: RS-39 Catalog number: 38051 Epoch time: 14233.90480855 Element set: 831 Inclination: 051.6215 deg RA of node: 249.8305 deg Eccentricity: 0.0007890 Arg of perigee: 056.8244 deg Mean anomaly: 015.2054 deg Mean motion: 15.69643534 rev/day Decay rate: 1.04654e-03 rev/day^2 Epoch rev: 14440 Checksum: 300
Satellite: E-STAR Catalog number: 38079 Epoch time: 14233.23359012 Element set: 937 Inclination: 069.4487 deg RA of node: 178.9606 deg Eccentricity: 0.0339546 Arg of perigee: 260.4014 deg Mean anomaly: 217.3950 deg Mean motion: 15.17356450 rev/day Decay rate: 5.6136e-04 rev/day^2 Epoch rev: 13330 Checksum: 309
Satellite: GOLIAT Catalog number: 38085 Epoch time: 14233.53599261 Element set: 291 Inclination: 069.4534 deg RA of node: 186.8766 deg Eccentricity: 0.0366553 Arg of perigee: 264.2174 deg Mean anomaly: 091.7098 deg Mean motion: 15.10771027 rev/day Decay rate: 5.7122e-04 rev/day^2 Epoch rev: 13311 Checksum: 314
Satellite: HORYU-2 Catalog number: 38340 Epoch time: 14232.84239520 Element set: 942 Inclination: 098.2675 deg RA of node: 191.1602 deg Eccentricity: 0.0012032 Arg of perigee: 336.7569 deg Mean anomaly: 023.3123 deg Mean motion: 14.72684444 rev/day Decay rate: 8.82e-06 rev/day^2 Epoch rev: 12131 Checksum: 278
Satellite: RS-40 Catalog number: 38735 Epoch time: 14232.61903975 Element set: 653 Inclination: 082.4710 deg RA of node: 247.3630 deg Eccentricity: 0.0018146 Arg of perigee: 113.0391 deg Mean anomaly: 247.2606 deg Mean motion: 12.42561346 rev/day Decay rate: 2.4e-07 rev/day^2 Epoch rev: 9358 Checksum: 284
Satellite: PROITERES Catalog number: 38756 Epoch time: 14233.85759068 Element set: 127 Inclination: 098.2282 deg RA of node: 323.2272 deg Eccentricity: 0.0013139 Arg of perigee: 169.0109 deg Mean anomaly: 191.1389 deg Mean motion: 14.75043607 rev/day Decay rate: 3.77e-06 rev/day^2 Epoch rev: 10486 Checksum: 309
Satellite: BEESAT-3 Catalog number: 39134 Epoch time: 14233.21413475 Element set: 677 Inclination: 064.8739 deg RA of node: 292.6490 deg Eccentricity: 0.0032662 Arg of perigee: 295.7484 deg Mean anomaly: 064.0269 deg Mean motion: 15.05814734 rev/day Decay rate: 1.759e-05 rev/day^2 Epoch rev: 7345 Checksum: 325
Satellite: BEESAT-2 Catalog number: 39136 Epoch time: 14233.70471411 Element set: 662 Inclination: 064.8762 deg RA of node: 291.7716 deg Eccentricity: 0.0033505 Arg of perigee: 296.9603 deg Mean anomaly: 062.8600 deg Mean motion: 15.05141314 rev/day Decay rate: 4.980e-05 rev/day^2 Epoch rev: 7351 Checksum: 286
Satellite: LO-75 Catalog number: 39382 Epoch time: 14233.84720378 Element set: 372 Inclination: 040.4940 deg RA of node: 056.3864 deg Eccentricity: 0.0025332 Arg of perigee: 348.8301 deg Mean anomaly: 011.2455 deg Mean motion: 15.53220567 rev/day Decay rate: 7.6367e-04 rev/day^2 Epoch rev: 46111 Checksum: 300
Satellite: ZACUBE-1 Catalog number: 39417 Epoch time: 14233.76474406 Element set: 382 Inclination: 097.7704 deg RA of node: 302.1227 deg Eccentricity: 0.0062760 Arg of perigee: 031.8455 deg Mean anomaly: 328.6491 deg Mean motion: 14.78262166 rev/day Decay rate: 5.54e-06 rev/day^2 Epoch rev: 4038 Checksum: 302
Satellite: TRITON-1 Catalog number: 39427 Epoch time: 14232.77922891 Element set: 234 Inclination: 097.7579 deg RA of node: 295.6759 deg Eccentricity: 0.0119047 Arg of perigee: 045.2490 deg Mean anomaly: 315.8312 deg Mean motion: 14.65526087 rev/day Decay rate: 5.02e-06 rev/day^2 Epoch rev: 3985 Checksum: 334
Satellite: DELFIN3XT Catalog number: 39428 Epoch time: 14233.20332635 Element set: 236 Inclination: 097.7563 deg RA of node: 295.1119 deg Eccentricity: 0.0129197 Arg of perigee: 046.3761 deg Mean anomaly: 314.8092 deg Mean motion: 14.63511595 rev/day Decay rate: 9.12e-06 rev/day^2 Epoch rev: 3984 Checksum: 310
Satellite: GOMX-1 Catalog number: 39430 Epoch time: 14233.69127309 Element set: 745 Inclination: 097.7513 deg RA of node: 292.9047 deg Eccentricity: 0.0157228 Arg of perigee: 052.3557 deg Mean anomaly: 309.1792 deg Mean motion: 14.56959238 rev/day Decay rate: 5.44e-06 rev/day^2 Epoch rev: 3975 Checksum: 333
Satellite: MO-76 Catalog number: 39436 Epoch time: 14233.47924067 Element set: 303 Inclination: 097.7747 deg RA of node: 306.1255 deg Eccentricity: 0.0026261 Arg of perigee: 036.6455 deg Mean anomaly: 323.6593 deg Mean motion: 14.91261416 rev/day Decay rate: 6.203e-05 rev/day^2 Epoch rev: 4060 Checksum: 301
Satellite: LO-74 Catalog number: 39440 Epoch time: 14233.06741454 Element set: 234 Inclination: 097.7658 deg RA of node: 299.2690 deg Eccentricity: 0.0085049 Arg of perigee: 036.9881 deg Mean anomaly: 323.7159 deg Mean motion: 14.73200132 rev/day Decay rate: 5.80e-06 rev/day^2 Epoch rev: 4013 Checksum: 308
Satellite: PUCPSAT-1 Catalog number: 39442 Epoch time: 14233.47469645 Element set: 233 Inclination: 097.7765 deg RA of node: 305.2310 deg Eccentricity: 0.0035471 Arg of perigee: 033.3243 deg Mean anomaly: 327.0194 deg Mean motion: 14.86311175 rev/day Decay rate: 9.80e-06 rev/day^2 Epoch rev: 3932 Checksum: 289
Satellite: SHINAISAT Catalog number: 39572 Epoch time: 14233.91777385 Element set: 242 Inclination: 065.0076 deg RA of node: 173.8421 deg Eccentricity: 0.0020394 Arg of perigee: 280.7669 deg Mean anomaly: 079.1190 deg Mean motion: 15.75126520 rev/day Decay rate: 5.4244e-04 rev/day^2 Epoch rev: 2744 Checksum: 304
Satellite: OPUSAT Catalog number: 39575 Epoch time: 14205.03098383 Element set: 295 Inclination: 064.9843 deg RA of node: 263.3854 deg Eccentricity: 0.0017888 Arg of perigee: 326.7083 deg Mean anomaly: 036.3105 deg Mean motion: 16.47207532 rev/day Decay rate: 1.0394079e-01 rev/day^2 Epoch rev: 2311 Checksum: 316
Satellite: TEIKYOSAT Catalog number: 39576 Epoch time: 14233.88267178 Element set: 253 Inclination: 065.0043 deg RA of node: 171.1310 deg Eccentricity: 0.0019686 Arg of perigee: 289.5170 deg Mean anomaly: 070.3874 deg Mean motion: 15.81203368 rev/day Decay rate: 8.6765e-04 rev/day^2 Epoch rev: 2749 Checksum: 321
Satellite: CO-77 Catalog number: 39577 Epoch time: 14233.89316243 Element set: 320 Inclination: 064.9966 deg RA of node: 164.2890 deg Eccentricity: 0.0016795 Arg of perigee: 272.4683 deg Mean anomaly: 087.4706 deg Mean motion: 16.06004609 rev/day Decay rate: 5.43932e-03 rev/day^2 Epoch rev: 2762 Checksum: 343
Satellite: STARS-II Catalog number: 39579 Epoch time: 14116.06110564 Element set: 132 Inclination: 064.9886 deg RA of node: 219.0071 deg Eccentricity: 0.0013010 Arg of perigee: 293.8065 deg Mean anomaly: 069.6132 deg Mean motion: 16.44611049 rev/day Decay rate: 2.0186783e-01 rev/day^2 Epoch rev: 902 Checksum: 288
Satellite: SPROUT Catalog number: 39770 Epoch time: 14233.32732728 Element set: 105 Inclination: 097.8719 deg RA of node: 329.4867 deg Eccentricity: 0.0011989 Arg of perigee: 100.0300 deg Mean anomaly: 260.2266 deg Mean motion: 14.82702086 rev/day Decay rate: 4.44e-06 rev/day^2 Epoch rev: 1319 Checksum: 288
Satellite: POPSAT-HIP1 Catalog number: 40028 Epoch time: 14233.84197735 Element set: 186 Inclination: 097.9784 deg RA of node: 128.6087 deg Eccentricity: 0.0016650 Arg of perigee: 080.3630 deg Mean anomaly: 279.9485 deg Mean motion: 14.85176473 rev/day Decay rate: 7.68e-06 rev/day^2 Epoch rev: 932 Checksum: 336
Satellite: EO-80 Catalog number: 40032 Epoch time: 14233.78429311 Element set: 180 Inclination: 097.9769 deg RA of node: 128.5001 deg Eccentricity: 0.0014278 Arg of perigee: 076.1607 deg Mean anomaly: 284.1194 deg Mean motion: 14.84948496 rev/day Decay rate: 7.72e-06 rev/day^2 Epoch rev: 932 Checksum: 313
Satellite: VELOX-1 Catalog number: 40057 Epoch time: 14233.76501902 Element set: 172 Inclination: 098.2488 deg RA of node: 301.8395 deg Eccentricity: 0.0013223 Arg of perigee: 112.4309 deg Mean anomaly: 247.8301 deg Mean motion: 14.74056523 rev/day Decay rate: 7.19e-06 rev/day^2 Epoch rev: 774 Checksum: 276
Satellite: DAURIA DX 1 Catalog number: 40071 Epoch time: 14233.75610767 Element set: 143 Inclination: 098.3986 deg RA of node: 287.3512 deg Eccentricity: 0.0009944 Arg of perigee: 114.5156 deg Mean anomaly: 245.7088 deg Mean motion: 14.79541914 rev/day Decay rate: 2.81e-06 rev/day^2 Epoch rev: 650 Checksum: 303
Satellite: UKUBE-1 Catalog number: 40074 Epoch time: 14233.79774915 Element set: 145 Inclination: 098.3995 deg RA of node: 287.4629 deg Eccentricity: 0.0006460 Arg of perigee: 121.1279 deg Mean anomaly: 239.0571 deg Mean motion: 14.80439793 rev/day Decay rate: 7.15e-06 rev/day^2 Epoch rev: 651 Checksum: 318
Satellite: CHASQUI-1 Catalog number: 40117 Epoch time: 14233.78125948 Element set: 21 Inclination: 051.6439 deg RA of node: 134.4396 deg Eccentricity: 0.0005847 Arg of perigee: 035.5787 deg Mean anomaly: 027.8337 deg Mean motion: 15.50379538 rev/day Decay rate: 3.4622e-04 rev/day^2 Epoch rev: 47 Checksum: 303
/EX
participants (1)
-
Ray Hoad